{"data":{"norad_id":60488,"epoch":"2026-05-25T03:14:51.597024Z","epoch_age_seconds":77455,"freshness":"FRESH","line1":"1 60488U 24149W   26145.13531941  .00020120  00000+0  45657-3 0  9995","line2":"2 60488  97.3799 230.0969 0002164  33.5544 326.5841 15.43087733 98825","mean_motion":15.43087733,"eccentricity":0.0002164,"inclination_deg":97.3799,"raan_deg":230.0969,"arg_perigee_deg":33.5544,"mean_anomaly_deg":326.5841,"bstar":0.00045657,"rev_number":9882,"period_min":93.319386137587,"perigee_km":435.5278958064,"apogee_km":438.47748826511,"semimajor_km":6815.1396920358,"source":"CELESTRAK","updated_at":"2026-05-25T13:38:13.303093Z"}}